Location: Aalsum
(53.3404°N, 6.0062°E)
Time: 08:52:52
(UTC+00:00)

Cosmos 2219 - Pass Details

Date: 28 January 2023
Orbit: 835 x 858 km, 71.1° (Epoch: 19 March)

Event Time Altitude Azimuth Distance (km) Brightness Sun altitude
Rises 16:38:20 0° 327° (NNW) 3,401 6.5 -4.5°
Reaches altitude 10° 16:40:47 10° 328° (NNW) 2,461 5.7 -4.8°
Maximum altitude 16:46:27 88° 240° (WSW) 844 3.3 -5.6°
Drops below altitude 10° 16:52:03 10° 151° (SSE) 2,443 5.6 -6.3°
Sets 16:54:29 0° 152° (SSE) 3,375 6.3 -6.7°
